SPACEBEE-1

Last updated on Fri Aug 05 2022 00:03:43 GMT+0000 (Coordinated Universal Time)

1 43142U 18004AH 22214.78577105 .17233459 25481-5 43567-3 0 9995 2 43142 97.3558 309.4769 0014079 269.1238 90.8451 16.44744451254573

Satellite not in orbit